Showing default

FFLY-1, 65320

Orbit data source: Space-Track

FFLY-1, 65320 is a payload satellite owned by Pixxel (US) in SSO that was launched on Tue, 26 Aug 2025 UTC via an FALCON 9 launch vehicle from the Air Force Western Test Range (AFWTR). Payload-class satellites include a variety of spacecraft equipped with specific instruments for various scientific and technological missions. These include communications satellites like Starlink; space stations such as the ISS; scientific satellites like the Hubble; Earth observation satellites from companies like Planet Labs, Umbra, and HawkEye 360; GPS; miniature CubeSats for education and research; and military/defense satellites.

Loading next visibility...
Identifier
65320, 2025-188F
Orbit
SSO
Country
Flag of USUS
Related business
Manufacturer
Pixxel
Mission
Operational Commercial Imaging
Bus & Motor
FIREFLY, Unknown motor
Mass
60 kg wet, 60 kg dry
Launch date (UTC)
2025-08-26 (10 months ago)
Launch vehicle
FALCON 9
Launch site
Air Force Western Test Range (AFWTR)
Object type
Payload
Rocket body
Debris
Shape & HBR
Box + 2 Pan, 14.5 m
Radar Cross Section
0.338 m², Medium (>0.1 m² and < 1m²)

Expand to show TLE details & history
Last TLE update: 8 hours ago

TLE from 8 hours ago
0 FFLY-1
1 65320U 25188F   26171.52316286  .00000788  00000-0  81866-4 0  9996
2 65320  97.7382 246.7037 0010295 156.1658 204.0040 14.92649419 44403
Epoch: 2026-06-20T12:33Z
TLE epoch observation values (Epoch: 2026-06-20T12:33:21.271Z)
Latitude
Longitude
149.6285°
Altitude
599.277 km
Speed
7.556 km/s
True Right ascension
16h 26m 48s
True Declination
0° 00' 00"
Sunlit
Object was in full shadow at epoch
Visualization orbit readout
Latitude
Unknown
Longitude
Unknown
Altitude
Unknown
Speed
Unknown
Apparent Right ascension
Unknown
Apparent Declination
Unknown
Sunlit
N/A
Visualization observer readout
Local Sidereal Time
07:19:20
Azimuth
Unknown
Elevation
Unknown
Doppler factor
Unknown
Orbital elements
Apogee altitude
593.865 km
Perigee altitude
579.525 km
Semi-major axis
6,964.832 km
Eccentricity
0.00103
Inclination
97.7382°
RAAN
246.7037°
Arg. of periapsis
156.1658°
True anomaly
203.95607°
Mean anomaly
204.004°
Eccentric anomaly
203.98003°
Mean motion
3.73402 °/min
Orbital period
96.41 mins
BSTAR
0.000081866
Loading maneuver chart data...
Computing Atmospheric mass density...
Loading historical data...
Loading historical data...
Loading historical data...
Loading historical data...
Loading historical data...
Loading historical data...
Loading historical data...

Documentation

Showing up to 5 results
|